Time,TemperatureF,DewpointF,PressureIn,WindDirection,WindDirectionDegrees,WindSpeedMPH,WindSpeedGustMPH,Humidity,HourlyPrecipIn,Conditions,Clouds,dailyrainin,SoftwareType,DateUTC
2013-08-07 00:01:00,63.3,49.2,29.32,East,88,0.0,0.0,60,0.00,,---,0.00,VWS V14.01,2013-08-07 04:01:00,
2013-08-07 00:02:00,63.3,49.2,29.32,East,88,0.0,0.0,60,0.00,,---,0.00,VWS V14.01,2013-08-07 04:02:00,
2013-08-07 00:04:00,63.3,49.2,29.32,East,88,0.0,0.0,60,0.00,,---,0.00,VWS V14.01,2013-08-07 04:04:00,
2013-08-07 00:06:00,63.3,49.7,29.32,East,88,0.0,0.0,61,0.00,,---,0.00,VWS V14.01,2013-08-07 04:06:00,
2013-08-07 00:09:00,63.3,49.7,29.32,East,88,0.0,0.0,61,0.00,,---,0.00,VWS V14.01,2013-08-07 04:09:00,
2013-08-07 00:14:00,63.1,49.5,29.32,East,88,0.0,0.0,61,0.00,,---,0.00,VWS V14.01,2013-08-07 04:14:00,
2013-08-07 00:19:00,63.1,49.9,29.32,East,88,0.0,0.0,62,0.00,,---,0.00,VWS V14.01,2013-08-07 04:19:00,
2013-08-07 00:24:00,63.1,50.3,29.32,East,88,0.0,0.0,63,0.00,,---,0.00,VWS V14.01,2013-08-07 04:24:00,
2013-08-07 00:29:00,63.1,50.3,29.32,East,88,0.0,0.0,63,0.00,,---,0.00,VWS V14.01,2013-08-07 04:29:00,
2013-08-07 00:34:00,63.0,50.2,29.32,East,88,0.0,0.0,63,0.00,,---,0.00,VWS V14.01,2013-08-07 04:34:00,
2013-08-07 00:39:00,63.0,50.6,29.32,East,88,0.0,0.0,64,0.00,,---,0.00,VWS V14.01,2013-08-07 04:39:00,
2013-08-07 00:44:00,63.0,50.6,29.32,East,88,0.0,0.0,64,0.00,,---,0.00,VWS V14.01,2013-08-07 04:44:00,
2013-08-07 00:49:00,63.0,50.6,29.32,East,88,0.0,0.0,64,0.00,,---,0.00,VWS V14.01,2013-08-07 04:49:00,
2013-08-07 00:54:00,63.0,51.0,29.32,East,88,0.0,0.0,65,0.00,,---,0.00,VWS V14.01,2013-08-07 04:54:00,
2013-08-07 00:59:00,62.8,50.8,29.32,East,88,0.0,0.0,65,0.00,,---,0.00,VWS V14.01,2013-08-07 04:59:00,
2013-08-07 01:04:00,62.8,50.8,29.32,East,88,0.0,0.0,65,0.00,,---,0.00,VWS V14.01,2013-08-07 05:04:00,
2013-08-07 01:09:00,62.6,50.7,29.32,East,88,0.0,0.0,65,0.00,,---,0.00,VWS V14.01,2013-08-07 05:09:00,
2013-08-07 01:14:00,62.6,51.1,29.32,East,88,0.0,0.0,66,0.00,,---,0.00,VWS V14.01,2013-08-07 05:14:00,
2013-08-07 01:19:00,62.6,51.1,29.32,East,88,0.0,0.0,66,0.00,,---,0.00,VWS V14.01,2013-08-07 05:19:00,
2013-08-07 01:24:00,62.6,51.5,29.32,East,88,0.0,0.0,67,0.00,,---,0.00,VWS V14.01,2013-08-07 05:24:00,
2013-08-07 01:29:00,62.4,51.3,29.32,East,88,0.0,0.0,67,0.00,,---,0.00,VWS V14.01,2013-08-07 05:29:00,
2013-08-07 01:34:00,62.4,51.3,29.32,East,88,0.0,0.0,67,0.00,,---,0.00,VWS V14.01,2013-08-07 05:34:00,
2013-08-07 01:39:00,62.2,51.6,29.32,East,88,0.0,0.0,68,0.00,,---,0.00,VWS V14.01,2013-08-07 05:39:00,
2013-08-07 01:44:00,62.2,51.6,29.32,East,88,0.0,0.0,68,0.00,,---,0.00,VWS V14.01,2013-08-07 05:44:00,
2013-08-07 01:49:00,62.1,51.8,29.32,East,88,0.0,0.0,69,0.00,,---,0.00,VWS V14.01,2013-08-07 05:49:00,
2013-08-07 01:54:00,61.9,51.6,29.32,East,88,0.0,0.0,69,0.00,,---,0.00,VWS V14.01,2013-08-07 05:54:00,
2013-08-07 01:59:00,61.9,51.6,29.32,East,88,0.0,0.0,69,0.00,,---,0.00,VWS V14.01,2013-08-07 05:59:00,
2013-08-07 02:04:00,61.9,52.0,29.32,East,88,0.0,0.0,70,0.00,,---,0.00,VWS V14.01,2013-08-07 06:04:00,
2013-08-07 02:09:00,61.9,52.0,29.32,East,88,0.0,0.0,70,0.00,,---,0.00,VWS V14.01,2013-08-07 06:09:00,
2013-08-07 02:14:00,61.9,52.0,29.32,East,88,0.0,0.0,70,0.00,,---,0.00,VWS V14.01,2013-08-07 06:14:00,
2013-08-07 02:19:00,61.9,52.0,29.32,East,88,0.0,0.0,70,0.00,,---,0.00,VWS V14.01,2013-08-07 06:19:00,
2013-08-07 02:24:00,61.9,52.4,29.32,East,88,0.0,0.0,71,0.00,,---,0.00,VWS V14.01,2013-08-07 06:24:00,
2013-08-07 02:29:00,61.9,52.4,29.32,East,88,0.0,0.0,71,0.00,,---,0.00,VWS V14.01,2013-08-07 06:29:00,
2013-08-07 02:34:00,61.9,52.4,29.32,East,88,0.0,0.0,71,0.00,,---,0.00,VWS V14.01,2013-08-07 06:34:00,
2013-08-07 02:39:00,61.9,52.8,29.32,East,88,0.0,0.0,72,0.00,,---,0.00,VWS V14.01,2013-08-07 06:39:00,
2013-08-07 02:44:00,61.9,52.8,29.32,East,88,0.0,0.0,72,0.00,,---,0.00,VWS V14.01,2013-08-07 06:44:00,
2013-08-07 02:49:00,61.9,52.8,29.32,East,88,0.0,0.0,72,0.00,,---,0.00,VWS V14.01,2013-08-07 06:49:00,
2013-08-07 02:54:00,61.9,52.8,29.32,East,88,0.0,0.0,72,0.00,,---,0.00,VWS V14.01,2013-08-07 06:54:00,
2013-08-07 02:59:00,61.9,53.1,29.32,East,88,0.0,0.0,73,0.00,,---,0.00,VWS V14.01,2013-08-07 06:59:00,
2013-08-07 03:04:00,61.9,53.1,29.32,East,88,0.0,0.0,73,0.00,,---,0.00,VWS V14.01,2013-08-07 07:04:00,
2013-08-07 03:09:00,61.9,53.1,29.32,East,88,0.0,0.0,73,0.00,,---,0.00,VWS V14.01,2013-08-07 07:09:00,
2013-08-07 03:14:00,61.9,53.1,29.32,East,88,0.0,0.0,73,0.00,,---,0.00,VWS V14.01,2013-08-07 07:14:00,
2013-08-07 03:19:00,62.1,53.3,29.32,East,88,0.0,0.0,73,0.00,,---,0.00,VWS V14.01,2013-08-07 07:19:00,
2013-08-07 03:24:00,61.9,53.1,29.32,East,88,0.0,0.0,73,0.00,,---,0.00,VWS V14.01,2013-08-07 07:24:00,
2013-08-07 03:29:00,61.7,53.0,29.32,East,88,0.0,0.0,73,0.00,,---,0.00,VWS V14.01,2013-08-07 07:29:00,
2013-08-07 03:34:00,61.7,53.3,29.32,East,88,0.0,0.0,74,0.00,,---,0.00,VWS V14.01,2013-08-07 07:34:00,
2013-08-07 03:39:00,61.5,53.2,29.32,East,88,0.0,0.0,74,0.00,,---,0.00,VWS V14.01,2013-08-07 07:39:00,
2013-08-07 03:44:00,61.5,53.5,29.32,East,88,0.0,0.0,75,0.00,,---,0.00,VWS V14.01,2013-08-07 07:44:00,
2013-08-07 03:49:00,61.5,53.5,29.32,East,88,0.0,0.0,75,0.00,,---,0.00,VWS V14.01,2013-08-07 07:49:00,
2013-08-07 03:54:00,61.3,53.4,29.32,East,88,0.0,0.0,75,0.00,,---,0.00,VWS V14.01,2013-08-07 07:54:00,
2013-08-07 03:59:00,61.3,53.7,29.32,East,88,0.0,0.0,76,0.00,,---,0.00,VWS V14.01,2013-08-07 07:59:00,
2013-08-07 04:05:00,61.3,53.7,29.29,East,88,0.0,0.0,76,0.00,,---,0.00,VWS V14.01,2013-08-07 08:05:00,
2013-08-07 04:10:00,61.3,53.7,29.29,East,88,0.0,0.0,76,0.00,,---,0.00,VWS V14.01,2013-08-07 08:10:00,
2013-08-07 04:15:00,61.2,53.9,29.32,East,88,0.0,0.0,77,0.00,,---,0.00,VWS V14.01,2013-08-07 08:15:00,
2013-08-07 04:20:00,61.2,53.9,29.32,East,88,0.0,0.0,77,0.00,,---,0.00,VWS V14.01,2013-08-07 08:20:00,
2013-08-07 04:25:00,61.2,53.9,29.32,East,88,0.0,0.0,77,0.00,,---,0.00,VWS V14.01,2013-08-07 08:25:00,
2013-08-07 04:31:00,61.2,53.9,29.32,East,88,0.0,0.0,77,0.00,,---,0.00,VWS V14.01,2013-08-07 08:31:00,
2013-08-07 04:36:00,61.2,53.9,29.32,East,88,0.0,0.0,77,0.00,,---,0.00,VWS V14.01,2013-08-07 08:36:00,
2013-08-07 04:41:00,61.2,53.9,29.32,East,88,0.0,0.0,77,0.00,,---,0.00,VWS V14.01,2013-08-07 08:41:00,
2013-08-07 04:46:00,61.2,53.9,29.32,East,88,0.0,0.0,77,0.00,,---,0.00,VWS V14.01,2013-08-07 08:46:00,
2013-08-07 04:51:00,61.2,53.9,29.32,East,88,0.0,0.0,77,0.00,,---,0.00,VWS V14.01,2013-08-07 08:51:00,
2013-08-07 04:56:00,60.6,54.4,29.32,East,88,0.0,0.0,80,0.00,,---,0.00,VWS V14.01,2013-08-07 08:56:00,
2013-08-07 05:01:00,60.6,54.4,29.32,East,88,0.0,0.0,80,0.00,,---,0.00,VWS V14.01,2013-08-07 09:01:00,
2013-08-07 05:06:00,60.6,54.4,29.32,East,88,0.0,0.0,80,0.00,,---,0.00,VWS V14.01,2013-08-07 09:06:00,
2013-08-07 05:12:00,60.6,54.8,29.32,East,88,0.0,0.0,81,0.00,,---,0.00,VWS V14.01,2013-08-07 09:12:00,
2013-08-07 05:17:00,60.6,54.8,29.32,East,88,0.0,0.0,81,0.00,,---,0.00,VWS V14.01,2013-08-07 09:17:00,
2013-08-07 05:22:00,60.6,54.8,29.32,East,88,0.0,0.0,81,0.00,,---,0.00,VWS V14.01,2013-08-07 09:22:00,
2013-08-07 05:27:00,60.6,55.1,29.32,East,88,0.0,0.0,82,0.00,,---,0.00,VWS V14.01,2013-08-07 09:27:00,
2013-08-07 05:32:00,60.8,55.3,29.32,East,88,0.0,0.0,82,0.00,,---,0.00,VWS V14.01,2013-08-07 09:32:00,
2013-08-07 05:37:00,60.8,55.3,29.32,East,88,0.0,0.0,82,0.00,,---,0.00,VWS V14.01,2013-08-07 09:37:00,
2013-08-07 05:43:00,60.8,55.3,29.32,East,88,0.0,0.0,82,0.00,,---,0.00,VWS V14.01,2013-08-07 09:43:00,
2013-08-07 05:49:00,61.0,55.8,29.32,East,88,0.0,0.0,83,0.00,,---,0.00,VWS V14.01,2013-08-07 09:49:00,
2013-08-07 05:54:00,61.0,55.8,29.32,East,88,0.0,0.0,83,0.00,,---,0.00,VWS V14.01,2013-08-07 09:54:00,
2013-08-07 05:59:00,61.0,55.8,29.32,East,88,0.0,0.0,83,0.00,,---,0.00,VWS V14.01,2013-08-07 09:59:00,
2013-08-07 06:04:00,61.2,56.0,29.32,East,88,0.0,0.0,83,0.00,,---,0.00,VWS V14.01,2013-08-07 10:04:00,
2013-08-07 06:09:00,61.3,56.5,29.32,East,88,0.0,0.0,84,0.00,,---,0.00,VWS V14.01,2013-08-07 10:09:00,
2013-08-07 06:14:00,61.3,56.5,29.32,East,88,0.0,0.0,84,0.00,,---,0.00,VWS V14.01,2013-08-07 10:14:00,
2013-08-07 06:19:00,61.7,56.8,29.32,East,88,0.0,0.0,84,0.00,,---,0.00,VWS V14.01,2013-08-07 10:19:00,
2013-08-07 06:24:00,61.7,56.8,29.32,East,88,0.0,0.0,84,0.00,,---,0.00,VWS V14.01,2013-08-07 10:24:00,
2013-08-07 06:29:00,61.7,56.8,29.32,East,88,0.0,0.0,84,0.00,,---,0.00,VWS V14.01,2013-08-07 10:29:00,
2013-08-07 06:34:00,61.7,56.8,29.32,East,88,0.0,0.0,84,0.00,,---,0.00,VWS V14.01,2013-08-07 10:34:00,
2013-08-07 06:39:00,61.7,56.8,29.32,ESE,111,0.0,0.0,84,0.00,,---,0.00,VWS V14.01,2013-08-07 10:39:00,
2013-08-07 06:44:00,61.7,56.8,29.32,ESE,111,0.0,0.0,84,0.00,,---,0.00,VWS V14.01,2013-08-07 10:44:00,
2013-08-07 06:49:00,61.7,56.8,29.32,ESE,111,0.0,0.0,84,0.00,,---,0.00,VWS V14.01,2013-08-07 10:49:00,
2013-08-07 06:54:00,61.7,56.8,29.32,ESE,111,0.0,0.0,84,0.00,,---,0.00,VWS V14.01,2013-08-07 10:54:00,
2013-08-07 06:59:00,61.7,56.8,29.32,ESE,111,0.0,0.0,84,0.00,,---,0.00,VWS V14.01,2013-08-07 10:59:00,
2013-08-07 07:04:00,61.7,56.8,29.32,ESE,118,0.0,2.7,84,0.00,,---,0.00,VWS V14.01,2013-08-07 11:04:00,
2013-08-07 07:10:00,61.7,56.8,29.32,South,189,0.0,0.0,84,0.00,,---,0.00,VWS V14.01,2013-08-07 11:10:00,
2013-08-07 07:15:00,61.7,56.8,29.32,SSE,164,0.0,0.0,84,0.00,,---,0.00,VWS V14.01,2013-08-07 11:15:00,
2013-08-07 07:20:00,61.7,56.8,29.32,SSE,162,0.0,0.0,84,0.00,,---,0.00,VWS V14.01,2013-08-07 11:20:00,
2013-08-07 07:25:00,61.7,56.8,29.32,South,173,0.0,3.1,84,0.00,,---,0.00,VWS V14.01,2013-08-07 11:25:00,
2013-08-07 07:31:00,61.7,56.8,29.32,ENE,68,0.0,0.0,84,0.00,,---,0.00,VWS V14.01,2013-08-07 11:31:00,
2013-08-07 07:37:00,61.7,56.8,29.32,South,178,0.0,0.0,84,0.00,,---,0.00,VWS V14.01,2013-08-07 11:37:00,
2013-08-07 07:42:00,61.7,56.8,29.32,SE,137,0.0,0.0,84,0.00,,---,0.00,VWS V14.01,2013-08-07 11:42:00,
2013-08-07 07:47:00,61.7,56.8,29.35,SE,131,0.0,4.0,84,0.00,,---,0.00,VWS V14.01,2013-08-07 11:47:00,
2013-08-07 07:52:00,61.7,56.8,29.35,SSE,162,0.0,0.0,84,0.00,,---,0.00,VWS V14.01,2013-08-07 11:52:00,
2013-08-07 07:57:00,61.7,56.8,29.35,East,97,0.0,4.5,84,0.00,,---,0.00,VWS V14.01,2013-08-07 11:57:00,
2013-08-07 08:02:00,61.7,56.8,29.35,ENE,74,0.0,4.0,84,0.00,,---,0.00,VWS V14.01,2013-08-07 12:02:00,
2013-08-07 08:07:00,61.7,56.8,29.35,SSE,167,0.0,0.0,84,0.00,,---,0.00,VWS V14.01,2013-08-07 12:07:00,
2013-08-07 08:12:00,61.7,56.8,29.35,SE,140,2.7,2.7,84,0.00,,---,0.00,VWS V14.01,2013-08-07 12:12:00,
2013-08-07 08:18:00,61.7,56.8,29.32,SSE,166,2.7,4.0,84,0.00,,---,0.00,VWS V14.01,2013-08-07 12:18:00,
2013-08-07 08:23:00,61.7,56.8,29.32,SSW,195,4.9,5.8,84,0.00,,---,0.00,VWS V14.01,2013-08-07 12:23:00,
2013-08-07 08:28:00,61.7,56.8,29.32,SE,124,3.1,5.4,84,0.00,,---,0.00,VWS V14.01,2013-08-07 12:28:00,
2013-08-07 08:33:00,61.7,56.8,29.32,ENE,57,3.1,3.6,84,0.00,,---,0.00,VWS V14.01,2013-08-07 12:33:00,
2013-08-07 08:38:00,66.9,56.4,29.32,ENE,67,0.0,4.9,69,0.00,,---,0.00,VWS V14.01,2013-08-07 12:38:00,
2013-08-07 08:43:00,67.1,56.6,29.32,SSE,148,3.6,4.5,69,0.00,,---,0.00,VWS V14.01,2013-08-07 12:43:00,
2013-08-07 08:48:00,66.9,55.6,29.32,SE,142,3.1,4.5,67,0.00,,---,0.00,VWS V14.01,2013-08-07 12:48:00,
2013-08-07 08:53:00,66.9,55.6,29.32,SE,139,2.7,4.0,67,0.00,,---,0.00,VWS V14.01,2013-08-07 12:53:00,
2013-08-07 08:58:00,66.9,55.2,29.32,SE,130,0.0,0.0,66,0.00,,---,0.00,VWS V14.01,2013-08-07 12:58:00,
2013-08-07 09:03:00,67.1,55.8,29.32,SE,144,0.0,2.7,67,0.00,,---,0.00,VWS V14.01,2013-08-07 13:03:00,
2013-08-07 09:08:00,67.5,56.1,29.32,SE,139,0.0,3.6,67,0.00,,---,0.00,VWS V14.01,2013-08-07 13:08:00,
2013-08-07 09:13:00,68.5,57.2,29.32,SSE,150,0.0,4.9,67,0.00,,---,0.00,VWS V14.01,2013-08-07 13:13:00,
2013-08-07 09:18:00,69.3,55.7,29.32,East,82,0.0,4.5,62,0.00,,---,0.00,VWS V14.01,2013-08-07 13:18:00,
2013-08-07 09:23:00,69.8,54.8,29.32,NE,53,6.3,6.3,59,0.00,,---,0.00,VWS V14.01,2013-08-07 13:23:00,
2013-08-07 09:28:00,70.5,55.0,29.32,ESE,111,3.6,5.4,58,0.00,,---,0.00,VWS V14.01,2013-08-07 13:28:00,
2013-08-07 09:29:00,70.7,54.7,29.32,SE,143,3.1,3.6,57,0.00,,---,0.00,VWS V14.01,2013-08-07 13:29:00,
2013-08-07 09:34:00,71.2,52.2,29.32,SSE,161,2.7,4.0,51,0.00,,---,0.00,VWS V14.01,2013-08-07 13:34:00,
2013-08-07 09:39:00,71.8,52.7,29.32,SE,139,3.1,4.9,51,0.00,,---,0.00,VWS V14.01,2013-08-07 13:39:00,
2013-08-07 09:44:00,71.2,49.4,29.32,SE,140,3.1,3.6,46,0.00,,---,0.00,VWS V14.01,2013-08-07 13:44:00,
2013-08-07 09:49:00,71.4,49.6,29.32,ESE,103,4.9,8.7,46,0.00,,---,0.00,VWS V14.01,2013-08-07 13:49:00,
2013-08-07 09:54:00,71.2,49.4,29.32,SSE,152,0.0,4.5,46,0.00,,---,0.00,VWS V14.01,2013-08-07 13:54:00,
2013-08-07 10:00:00,71.1,49.8,29.32,SSE,153,6.3,6.3,47,0.00,,---,0.00,VWS V14.01,2013-08-07 14:00:00,
2013-08-07 10:06:00,70.7,50.6,29.32,ENE,61,5.4,5.4,49,0.00,,---,0.00,VWS V14.01,2013-08-07 14:06:00,
2013-08-07 10:12:00,70.2,50.1,29.32,ENE,62,3.1,4.9,49,0.00,,---,0.00,VWS V14.01,2013-08-07 14:12:00,
2013-08-07 10:17:00,70.2,51.2,29.32,SE,138,0.0,3.6,51,0.00,,---,0.00,VWS V14.01,2013-08-07 14:17:00,
2013-08-07 10:22:00,70.0,50.0,29.32,NE,41,4.9,4.9,49,0.00,,---,0.00,VWS V14.01,2013-08-07 14:22:00,
2013-08-07 10:28:00,70.2,51.2,29.32,ESE,115,3.1,4.5,51,0.00,,---,0.00,VWS V14.01,2013-08-07 14:28:00,
2013-08-07 10:33:00,70.0,50.5,29.32,NNE,33,0.0,3.6,50,0.00,,---,0.00,VWS V14.01,2013-08-07 14:33:00,
2013-08-07 10:38:00,70.2,51.7,29.32,East,87,4.9,4.9,52,0.00,,---,0.00,VWS V14.01,2013-08-07 14:38:00,
2013-08-07 10:43:00,70.5,52.1,29.32,ENE,70,2.7,4.5,52,0.00,,---,0.00,VWS V14.01,2013-08-07 14:43:00,
2013-08-07 10:48:00,70.7,50.1,29.32,SE,139,0.0,0.0,48,0.00,,---,0.00,VWS V14.01,2013-08-07 14:48:00,
2013-08-07 10:53:00,70.9,49.7,29.32,SSE,148,0.0,3.6,47,0.00,,---,0.00,VWS V14.01,2013-08-07 14:53:00,
2013-08-07 10:58:00,71.2,51.1,29.32,ENE,65,3.6,3.6,49,0.00,,---,0.00,VWS V14.01,2013-08-07 14:58:00,
2013-08-07 11:03:00,71.2,50.0,29.32,East,88,4.5,5.8,47,0.00,,---,0.00,VWS V14.01,2013-08-07 15:03:00,
2013-08-07 11:08:00,70.9,48.5,29.32,SE,141,4.9,5.4,45,0.00,,---,0.00,VWS V14.01,2013-08-07 15:08:00,
2013-08-07 11:13:00,70.5,48.8,29.32,ESE,121,4.9,6.3,46,0.00,,---,0.00,VWS V14.01,2013-08-07 15:13:00,
2013-08-07 11:18:00,70.7,50.1,29.32,ENE,66,0.0,4.5,48,0.00,,---,0.00,VWS V14.01,2013-08-07 15:18:00,
2013-08-07 11:23:00,70.5,49.9,29.32,East,87,3.6,6.3,48,0.00,,---,0.00,VWS V14.01,2013-08-07 15:23:00,
2013-08-07 11:28:00,70.9,50.8,29.32,East,84,4.9,4.9,49,0.00,,---,0.00,VWS V14.01,2013-08-07 15:28:00,
2013-08-07 11:33:00,71.4,51.3,29.32,ESE,102,0.0,3.1,49,0.00,,---,0.00,VWS V14.01,2013-08-07 15:33:00,
2013-08-07 11:38:00,71.8,49.9,29.32,East,100,0.0,3.6,46,0.00,,---,0.00,VWS V14.01,2013-08-07 15:38:00,
2013-08-07 11:43:00,72.0,48.9,29.32,ESE,115,3.1,7.4,44,0.00,,---,0.00,VWS V14.01,2013-08-07 15:43:00,
2013-08-07 11:48:00,72.3,48.6,29.32,SE,127,4.0,5.8,43,0.00,,---,0.00,VWS V14.01,2013-08-07 15:48:00,
2013-08-07 11:53:00,73.0,49.2,29.32,WSW,251,3.1,4.0,43,0.00,,---,0.00,VWS V14.01,2013-08-07 15:53:00,
2013-08-07 11:58:00,72.9,47.2,29.32,South,169,0.0,5.8,40,0.00,,---,0.00,VWS V14.01,2013-08-07 15:58:00,
2013-08-07 12:03:00,72.5,48.1,29.32,South,177,5.8,5.8,42,0.00,,---,0.00,VWS V14.01,2013-08-07 16:03:00,
2013-08-07 12:08:00,72.5,48.1,29.32,ESE,109,0.0,5.4,42,0.00,,---,0.00,VWS V14.01,2013-08-07 16:08:00,
2013-08-07 12:13:00,72.3,48.0,29.32,SSE,162,4.5,4.5,42,0.00,,---,0.00,VWS V14.01,2013-08-07 16:13:00,
2013-08-07 12:18:00,72.5,48.8,29.32,ESE,103,0.0,4.9,43,0.00,,---,0.00,VWS V14.01,2013-08-07 16:18:00,
2013-08-07 12:23:00,72.9,49.1,29.32,ESE,115,4.0,6.3,43,0.00,,---,0.00,VWS V14.01,2013-08-07 16:23:00,
2013-08-07 12:28:00,73.9,50.1,29.32,South,169,4.5,6.9,43,0.00,,---,0.00,VWS V14.01,2013-08-07 16:28:00,
2013-08-07 12:33:00,75.0,49.8,29.32,NE,56,5.8,5.8,41,0.00,,---,0.00,VWS V14.01,2013-08-07 16:33:00,
2013-08-07 12:39:00,74.7,44.5,29.32,ENE,62,3.6,6.7,34,0.00,,---,0.00,VWS V14.01,2013-08-07 16:39:00,
2013-08-07 12:44:00,74.1,45.5,29.32,South,179,3.6,3.6,36,0.00,,---,0.00,VWS V14.01,2013-08-07 16:44:00,
2013-08-07 12:49:00,73.2,47.5,29.32,ESE,112,3.1,4.5,40,0.00,,---,0.00,VWS V14.01,2013-08-07 16:49:00,
2013-08-07 12:54:00,72.7,48.3,29.32,NE,39,0.0,3.6,42,0.00,,---,0.00,VWS V14.01,2013-08-07 16:54:00,
2013-08-07 12:59:00,72.0,48.3,29.32,SE,134,4.5,5.8,43,0.00,,---,0.00,VWS V14.01,2013-08-07 16:59:00,
2013-08-07 13:04:00,71.6,49.2,29.32,SE,128,0.0,4.5,45,0.00,,---,0.00,VWS V14.01,2013-08-07 17:04:00,
2013-08-07 13:09:00,71.6,49.8,29.32,SE,133,0.0,0.0,46,0.00,,---,0.00,VWS V14.01,2013-08-07 17:09:00,
2013-08-07 13:14:00,71.4,50.2,29.32,ENE,67,0.0,3.1,47,0.00,,---,0.00,VWS V14.01,2013-08-07 17:14:00,
2013-08-07 13:19:00,71.6,50.3,29.32,ESE,121,3.6,4.9,47,0.00,,---,0.00,VWS V14.01,2013-08-07 17:19:00,
2013-08-07 13:24:00,71.6,49.8,29.32,SSE,155,0.0,3.1,46,0.00,,---,0.00,VWS V14.01,2013-08-07 17:24:00,
2013-08-07 13:29:00,71.6,49.8,29.32,East,87,0.0,4.0,46,0.00,,---,0.00,VWS V14.01,2013-08-07 17:29:00,
2013-08-07 13:34:00,71.4,49.0,29.32,SE,139,0.0,4.0,45,0.00,,---,0.00,VWS V14.01,2013-08-07 17:34:00,
2013-08-07 13:39:00,71.6,49.2,29.32,South,177,0.0,3.6,45,0.00,,---,0.00,VWS V14.01,2013-08-07 17:39:00,
2013-08-07 13:44:00,71.2,48.8,29.32,South,183,0.0,4.9,45,0.00,,---,0.00,VWS V14.01,2013-08-07 17:44:00,
2013-08-07 13:49:00,71.2,49.4,29.32,SE,125,0.0,0.0,46,0.00,,---,0.00,VWS V14.01,2013-08-07 17:49:00,
2013-08-07 13:54:00,71.1,49.8,29.32,SSE,148,3.1,4.9,47,0.00,,---,0.00,VWS V14.01,2013-08-07 17:54:00,
2013-08-07 13:59:00,71.1,49.8,29.32,SSE,148,3.1,4.5,47,0.00,,---,0.00,VWS V14.01,2013-08-07 17:59:00,
2013-08-07 14:04:00,71.2,50.0,29.32,ENE,62,3.6,7.4,47,0.00,,---,0.00,VWS V14.01,2013-08-07 18:04:00,
2013-08-07 14:09:00,72.1,50.2,29.32,SE,145,0.0,4.0,46,0.00,,---,0.00,VWS V14.01,2013-08-07 18:09:00,
2013-08-07 14:14:00,72.9,49.7,29.32,SE,141,3.6,4.5,44,0.00,,---,0.00,VWS V14.01,2013-08-07 18:14:00,
2013-08-07 14:19:00,73.2,49.4,29.29,SSE,167,3.6,6.7,43,0.00,,---,0.00,VWS V14.01,2013-08-07 18:19:00,
2013-08-07 14:24:00,73.2,47.5,29.29,SE,126,4.5,6.9,40,0.00,,---,0.00,VWS V14.01,2013-08-07 18:24:00,
2013-08-07 14:29:00,73.0,48.0,29.29,ENE,68,2.7,4.0,41,0.00,,---,0.00,VWS V14.01,2013-08-07 18:29:00,
2013-08-07 14:34:00,72.9,48.5,29.32,SSE,156,3.1,3.6,42,0.00,,---,0.00,VWS V14.01,2013-08-07 18:34:00,
2013-08-07 14:39:00,72.9,48.5,29.32,SSE,166,0.0,4.0,42,0.00,,---,0.00,VWS V14.01,2013-08-07 18:39:00,
2013-08-07 14:44:00,72.5,47.5,29.32,SE,127,3.1,4.5,41,0.00,,---,0.00,VWS V14.01,2013-08-07 18:44:00,
2013-08-07 14:49:00,72.5,48.8,29.29,SE,145,4.9,7.8,43,0.00,,---,0.00,VWS V14.01,2013-08-07 18:49:00,
2013-08-07 14:54:00,72.3,48.6,29.29,SSE,151,3.1,3.6,43,0.00,,---,0.00,VWS V14.01,2013-08-07 18:54:00,
2013-08-07 14:59:00,72.3,49.2,29.29,ENE,75,0.0,3.6,44,0.00,,---,0.00,VWS V14.01,2013-08-07 18:59:00,
2013-08-07 15:04:00,72.1,49.0,29.32,South,181,4.9,8.7,44,0.00,,---,0.00,VWS V14.01,2013-08-07 19:04:00,
2013-08-07 15:09:00,72.5,49.4,29.32,East,83,4.5,5.8,44,0.00,,---,0.00,VWS V14.01,2013-08-07 19:09:00,
2013-08-07 15:14:00,72.5,49.4,29.32,SSE,149,0.0,3.6,44,0.00,,---,0.00,VWS V14.01,2013-08-07 19:14:00,
2013-08-07 15:19:00,72.3,49.8,29.29,SSE,152,3.6,4.9,45,0.00,,---,0.00,VWS V14.01,2013-08-07 19:19:00,
2013-08-07 15:24:00,72.1,49.7,29.29,East,92,0.0,3.6,45,0.00,,---,0.00,VWS V14.01,2013-08-07 19:24:00,
2013-08-07 15:29:00,72.0,50.1,29.29,WNW,299,0.0,3.6,46,0.00,,---,0.00,VWS V14.01,2013-08-07 19:29:00,
2013-08-07 15:34:00,72.0,50.7,29.29,East,99,0.0,0.0,47,0.00,,---,0.00,VWS V14.01,2013-08-07 19:34:00,
2013-08-07 15:39:00,72.0,51.2,29.29,East,86,0.0,0.0,48,0.00,,---,0.00,VWS V14.01,2013-08-07 19:39:00,
2013-08-07 15:44:00,72.0,51.2,29.29,SE,124,0.0,3.1,48,0.00,,---,0.00,VWS V14.01,2013-08-07 19:44:00,
2013-08-07 15:49:00,72.0,51.2,29.29,ESE,111,2.7,4.9,48,0.00,,---,0.00,VWS V14.01,2013-08-07 19:49:00,
2013-08-07 15:54:00,71.6,51.5,29.29,South,171,0.0,0.0,49,0.00,,---,0.00,VWS V14.01,2013-08-07 19:54:00,
2013-08-07 15:59:00,71.6,50.9,29.29,South,172,2.7,4.5,48,0.00,,---,0.00,VWS V14.01,2013-08-07 19:59:00,
2013-08-07 16:04:00,72.1,51.9,29.29,NE,55,5.8,5.8,49,0.00,,---,0.00,VWS V14.01,2013-08-07 20:04:00,
2013-08-07 16:09:00,72.1,50.8,29.29,SSE,154,3.1,6.7,47,0.00,,---,0.00,VWS V14.01,2013-08-07 20:09:00,
2013-08-07 16:14:00,72.1,50.2,29.29,ENE,59,0.0,4.0,46,0.00,,---,0.00,VWS V14.01,2013-08-07 20:14:00,
2013-08-07 16:20:00,72.3,50.4,29.29,SE,143,0.0,4.0,46,0.00,,---,0.00,VWS V14.01,2013-08-07 20:20:00,
2013-08-07 16:25:00,72.7,50.7,29.29,SE,139,7.4,7.4,46,0.00,,---,0.00,VWS V14.01,2013-08-07 20:25:00,
2013-08-07 16:30:00,72.7,50.1,29.29,East,80,0.0,4.9,45,0.00,,---,0.00,VWS V14.01,2013-08-07 20:30:00,
2013-08-07 16:36:00,73.0,51.1,29.29,SE,143,0.0,6.3,46,0.00,,---,0.00,VWS V14.01,2013-08-07 20:36:00,
2013-08-07 16:41:00,73.0,51.1,29.29,SSE,168,0.0,5.4,46,0.00,,---,0.00,VWS V14.01,2013-08-07 20:41:00,
2013-08-07 16:46:00,73.0,51.6,29.29,ESE,113,3.1,4.5,47,0.00,,---,0.00,VWS V14.01,2013-08-07 20:46:00,
2013-08-07 16:51:00,73.0,51.6,29.29,SSE,152,2.7,3.6,47,0.00,,---,0.00,VWS V14.01,2013-08-07 20:51:00,
2013-08-07 16:57:00,72.9,50.9,29.29,SSW,199,4.9,5.8,46,0.00,,---,0.00,VWS V14.01,2013-08-07 20:57:00,
2013-08-07 17:02:00,72.5,50.0,29.29,South,179,3.6,5.8,45,0.00,,---,0.00,VWS V14.01,2013-08-07 21:02:00,
2013-08-07 17:07:00,72.5,51.2,29.29,SE,131,3.1,3.6,47,0.00,,---,0.00,VWS V14.01,2013-08-07 21:07:00,
2013-08-07 17:12:00,72.7,52.4,29.29,SE,139,4.5,4.5,49,0.00,,---,0.00,VWS V14.01,2013-08-07 21:12:00,
2013-08-07 17:17:00,72.7,51.9,29.26,ESE,115,5.8,5.8,48,0.00,,---,0.00,VWS V14.01,2013-08-07 21:17:00,
2013-08-07 17:22:00,72.5,52.3,29.26,South,170,0.0,4.5,49,0.00,,---,0.00,VWS V14.01,2013-08-07 21:22:00,
2013-08-07 17:27:00,72.3,52.1,29.26,East,100,3.6,4.9,49,0.00,,---,0.00,VWS V14.01,2013-08-07 21:27:00,
2013-08-07 17:32:00,72.3,52.7,29.26,ENE,69,3.6,6.9,50,0.00,,---,0.00,VWS V14.01,2013-08-07 21:32:00,
2013-08-07 17:37:00,72.3,53.2,29.26,SE,128,4.5,8.3,51,0.00,,---,0.00,VWS V14.01,2013-08-07 21:37:00,
2013-08-07 17:42:00,72.1,53.0,29.26,SSE,167,0.0,4.0,51,0.00,,---,0.00,VWS V14.01,2013-08-07 21:42:00,
2013-08-07 17:47:00,72.1,53.6,29.26,SE,145,0.0,3.1,52,0.00,,---,0.00,VWS V14.01,2013-08-07 21:47:00,
2013-08-07 17:52:00,72.0,54.4,29.26,SSE,162,4.5,4.9,54,0.00,,---,0.00,VWS V14.01,2013-08-07 21:52:00,
2013-08-07 17:57:00,71.8,54.8,29.26,SSE,159,0.0,6.3,55,0.00,,---,0.00,VWS V14.01,2013-08-07 21:57:00,
2013-08-07 18:02:00,71.6,54.1,29.26,ESE,106,2.7,6.7,54,0.00,,---,0.00,VWS V14.01,2013-08-07 22:02:00,
2013-08-07 18:07:00,71.6,54.1,29.26,SE,144,0.0,3.1,54,0.00,,---,0.00,VWS V14.01,2013-08-07 22:07:00,
2013-08-07 18:12:00,71.4,53.9,29.26,ESE,112,0.0,4.5,54,0.00,,---,0.00,VWS V14.01,2013-08-07 22:12:00,
2013-08-07 18:17:00,71.2,53.2,29.26,ESE,106,2.7,5.8,53,0.00,,---,0.00,VWS V14.01,2013-08-07 22:17:00,
2013-08-07 18:22:00,71.2,53.8,29.26,SSE,164,0.0,5.8,54,0.00,,---,0.00,VWS V14.01,2013-08-07 22:22:00,
2013-08-07 18:27:00,71.2,53.8,29.26,South,175,5.4,5.4,54,0.00,,---,0.00,VWS V14.01,2013-08-07 22:27:00,
2013-08-07 18:32:00,70.9,52.4,29.26,ESE,117,3.6,7.4,52,0.00,,---,0.00,VWS V14.01,2013-08-07 22:32:00,
2013-08-07 18:37:00,71.1,53.1,29.26,SE,129,0.0,4.9,53,0.00,,---,0.00,VWS V14.01,2013-08-07 22:37:00,
2013-08-07 18:42:00,70.9,53.4,29.26,ESE,109,3.1,5.8,54,0.00,,---,0.00,VWS V14.01,2013-08-07 22:42:00,
2013-08-07 18:47:00,70.9,53.4,29.26,SE,146,0.0,4.0,54,0.00,,---,0.00,VWS V14.01,2013-08-07 22:47:00,
2013-08-07 18:52:00,70.9,53.4,29.26,SE,140,3.6,5.8,54,0.00,,---,0.00,VWS V14.01,2013-08-07 22:52:00,
2013-08-07 18:57:00,70.9,53.9,29.26,East,88,0.0,3.6,55,0.00,,---,0.00,VWS V14.01,2013-08-07 22:57:00,
2013-08-07 19:02:00,70.7,53.8,29.26,SSE,157,0.0,5.8,55,0.00,,---,0.00,VWS V14.01,2013-08-07 23:02:00,
2013-08-07 19:07:00,70.7,54.7,29.26,East,85,3.1,3.6,57,0.00,,---,0.00,VWS V14.01,2013-08-07 23:07:00,
2013-08-07 19:12:00,70.3,56.3,29.26,NE,38,2.7,4.5,61,0.00,,---,0.00,VWS V14.01,2013-08-07 23:12:00,
2013-08-07 19:17:00,69.8,56.7,29.26,SE,134,0.0,3.6,63,0.00,,---,0.00,VWS V14.01,2013-08-07 23:17:00,
2013-08-07 19:22:00,69.3,58.3,29.26,SSE,149,0.0,5.8,68,0.00,,---,0.00,VWS V14.01,2013-08-07 23:22:00,
2013-08-07 19:27:00,69.1,58.5,29.26,NE,55,0.0,2.7,69,0.00,,---,0.00,VWS V14.01,2013-08-07 23:27:00,
2013-08-07 19:32:00,68.9,59.1,29.26,SE,133,0.0,3.6,71,0.00,,---,0.00,VWS V14.01,2013-08-07 23:32:00,
2013-08-07 19:37:00,68.9,59.1,29.26,ENE,66,0.0,0.0,71,0.00,,---,0.00,VWS V14.01,2013-08-07 23:37:00,
2013-08-07 19:42:00,68.9,59.1,29.26,ESE,109,2.7,4.0,71,0.00,,---,0.00,VWS V14.01,2013-08-07 23:42:00,
2013-08-07 19:47:00,68.9,59.1,29.26,WNW,286,2.7,4.0,71,0.00,,---,0.00,VWS V14.01,2013-08-07 23:47:00,
2013-08-07 19:52:00,68.9,59.1,29.26,East,100,0.0,0.0,71,0.00,,---,0.00,VWS V14.01,2013-08-07 23:52:00,
2013-08-07 19:57:00,68.9,59.1,29.26,ENE,58,0.0,2.7,71,0.00,,---,0.00,VWS V14.01,2013-08-07 23:57:00,
2013-08-07 20:02:00,68.9,59.1,29.26,ESE,116,0.0,4.0,71,0.00,,---,0.00,VWS V14.01,2013-08-08 00:02:00,
2013-08-07 20:07:00,68.9,59.1,29.26,SE,124,0.0,2.7,71,0.00,,---,0.00,VWS V14.01,2013-08-08 00:07:00,
2013-08-07 20:12:00,68.9,59.1,29.26,NW,325,2.7,4.5,71,0.00,,---,0.00,VWS V14.01,2013-08-08 00:12:00,
2013-08-07 20:17:00,68.9,59.1,29.26,SE,140,0.0,5.4,71,0.00,,---,0.00,VWS V14.01,2013-08-08 00:17:00,
2013-08-07 20:22:00,68.9,59.1,29.26,East,83,0.0,6.3,71,0.00,,---,0.00,VWS V14.01,2013-08-08 00:22:00,
2013-08-07 20:27:00,68.9,59.1,29.26,ENE,74,2.7,4.5,71,0.00,,---,0.00,VWS V14.01,2013-08-08 00:27:00,
2013-08-07 20:32:00,68.9,59.1,29.26,ESE,106,5.8,5.8,71,0.00,,---,0.00,VWS V14.01,2013-08-08 00:32:00,
2013-08-07 20:37:00,68.9,59.1,29.26,East,86,4.5,5.8,71,0.00,,---,0.00,VWS V14.01,2013-08-08 00:37:00,
2013-08-07 20:42:00,68.9,59.1,29.26,South,169,2.7,4.5,71,0.00,,---,0.00,VWS V14.01,2013-08-08 00:42:00,
2013-08-07 20:47:00,68.9,59.1,29.26,ESE,104,3.1,6.3,71,0.00,,---,0.00,VWS V14.01,2013-08-08 00:47:00,
2013-08-07 20:52:00,68.9,59.1,29.26,East,79,4.0,6.7,71,0.00,,---,0.00,VWS V14.01,2013-08-08 00:52:00,
2013-08-07 20:57:00,68.9,59.1,29.26,East,80,3.1,3.1,71,0.00,,---,0.00,VWS V14.01,2013-08-08 00:57:00,
2013-08-07 21:02:00,68.9,59.1,29.26,ENE,70,0.0,4.9,71,0.00,,---,0.00,VWS V14.01,2013-08-08 01:02:00,
2013-08-07 21:07:00,68.9,59.1,29.26,SE,134,6.7,6.7,71,0.00,,---,0.00,VWS V14.01,2013-08-08 01:07:00,
2013-08-07 21:12:00,68.9,59.1,29.26,SE,144,0.0,3.6,71,0.00,,---,0.00,VWS V14.01,2013-08-08 01:12:00,
2013-08-07 21:17:00,68.9,59.1,29.26,SE,133,0.0,4.0,71,0.00,,---,0.00,VWS V14.01,2013-08-08 01:17:00,
2013-08-07 21:22:00,68.9,59.1,29.26,ESE,107,4.5,4.9,71,0.00,,---,0.00,VWS V14.01,2013-08-08 01:22:00,
2013-08-07 21:27:00,68.9,59.1,29.26,SE,132,4.0,4.0,71,0.00,,---,0.00,VWS V14.01,2013-08-08 01:27:00,
2013-08-07 21:32:00,68.9,59.1,29.26,ESE,105,0.0,0.0,71,0.00,,---,0.00,VWS V14.01,2013-08-08 01:32:00,
2013-08-07 21:37:00,68.9,59.1,29.26,ENE,70,0.0,4.0,71,0.00,,---,0.00,VWS V14.01,2013-08-08 01:37:00,
2013-08-07 21:42:00,68.9,59.1,29.26,NE,56,0.0,4.0,71,0.00,,---,0.00,VWS V14.01,2013-08-08 01:42:00,
2013-08-07 21:47:00,68.9,59.1,29.26,NE,56,4.5,4.5,71,0.00,,---,0.00,VWS V14.01,2013-08-08 01:47:00,
2013-08-07 21:52:00,68.9,59.1,29.26,SSE,167,0.0,0.0,71,0.00,,---,0.00,VWS V14.01,2013-08-08 01:52:00,
2013-08-07 21:57:00,68.9,59.1,29.26,SE,124,0.0,3.6,71,0.00,,---,0.00,VWS V14.01,2013-08-08 01:57:00,
2013-08-07 22:02:00,68.9,59.1,29.26,East,96,0.0,0.0,71,0.00,,---,0.00,VWS V14.01,2013-08-08 02:02:00,
2013-08-07 22:07:00,68.9,59.1,29.26,ESE,116,4.9,5.4,71,0.00,,---,0.00,VWS V14.01,2013-08-08 02:07:00,
2013-08-07 22:12:00,68.9,59.1,29.26,East,84,4.0,4.0,71,0.00,,---,0.00,VWS V14.01,2013-08-08 02:12:00,
2013-08-07 22:17:00,68.9,59.1,29.26,ENE,65,0.0,0.0,71,0.00,,---,0.00,VWS V14.01,2013-08-08 02:17:00,
2013-08-07 22:22:00,68.9,59.1,29.26,ESE,104,0.0,0.0,71,0.00,,---,0.00,VWS V14.01,2013-08-08 02:22:00,
2013-08-07 22:27:00,68.9,59.1,29.26,ESE,102,0.0,0.0,71,0.00,,---,0.00,VWS V14.01,2013-08-08 02:27:00,
2013-08-07 22:32:00,68.9,59.1,29.26,South,183,0.0,3.1,71,0.00,,---,0.00,VWS V14.01,2013-08-08 02:32:00,
2013-08-07 22:37:00,68.9,59.1,29.26,ENE,71,0.0,2.7,71,0.00,,---,0.00,VWS V14.01,2013-08-08 02:37:00,
2013-08-07 22:42:00,68.9,59.1,29.26,ENE,71,0.0,0.0,71,0.00,,---,0.00,VWS V14.01,2013-08-08 02:42:00,
2013-08-07 22:47:00,68.9,59.1,29.29,East,85,0.0,3.1,71,0.00,,---,0.00,VWS V14.01,2013-08-08 02:47:00,
2013-08-07 22:52:00,68.9,59.1,29.29,SE,128,0.0,2.7,71,0.00,,---,0.00,VWS V14.01,2013-08-08 02:52:00,
2013-08-07 22:57:00,68.9,59.1,29.29,ESE,121,0.0,0.0,71,0.00,,---,0.00,VWS V14.01,2013-08-08 02:57:00,
2013-08-07 23:02:00,68.9,59.1,29.26,ESE,113,0.0,3.1,71,0.00,,---,0.00,VWS V14.01,2013-08-08 03:02:00,
2013-08-07 23:07:00,68.9,59.1,29.26,NE,37,4.5,4.5,71,0.00,,---,0.00,VWS V14.01,2013-08-08 03:07:00,
2013-08-07 23:12:00,68.9,59.1,29.26,ESE,114,0.0,3.1,71,0.00,,---,0.00,VWS V14.01,2013-08-08 03:12:00,
2013-08-07 23:17:00,68.9,59.1,29.26,East,95,0.0,0.0,71,0.00,,---,0.00,VWS V14.01,2013-08-08 03:17:00,
2013-08-07 23:22:00,68.9,59.1,29.26,ESE,107,3.6,5.4,71,0.00,,---,0.00,VWS V14.01,2013-08-08 03:22:00,
2013-08-07 23:27:00,68.9,59.1,29.26,East,88,0.0,5.4,71,0.00,,---,0.00,VWS V14.01,2013-08-08 03:27:00,
2013-08-07 23:32:00,68.9,59.1,29.26,NE,48,3.6,3.6,71,0.00,,---,0.00,VWS V14.01,2013-08-08 03:32:00,
2013-08-07 23:37:00,68.9,59.1,29.26,East,85,3.6,4.9,71,0.00,,---,0.00,VWS V14.01,2013-08-08 03:37:00,
2013-08-07 23:42:00,68.9,59.1,29.26,SSE,166,0.0,3.1,71,0.00,,---,0.00,VWS V14.01,2013-08-08 03:42:00,
2013-08-07 23:47:00,68.9,59.1,29.26,ESE,108,3.6,4.9,71,0.00,,---,0.00,VWS V14.01,2013-08-08 03:47:00,
2013-08-07 23:52:00,68.9,59.1,29.26,ESE,117,0.0,0.0,71,0.00,,---,0.00,VWS V14.01,2013-08-08 03:52:00,
2013-08-07 23:57:00,68.9,59.1,29.26,East,99,2.7,4.5,71,0.00,,---,0.00,VWS V14.01,2013-08-08 03:57:00,